Wind_Speed
36 36 40 45 46 50 52 58 59 62 62 65 66 71 74 76 80 81 86 93 98 103 106 110 111 111 114 116 113 112 110 103 92 82 82 77 74 70 62 55 56 63 69
42 44 46 49 51 52 59 61 65 64 67 70 72 75 77 79 83 86 92 99 103 108 110 114 113 113 115 116 117 111 112 106 97 86 83 83 80 76 74 64 58 60 68
48 51 52 54 56 57 63 66 69 68 70 72 74 78 80 83 86 90 95 102 105 113 117 118 119 118 117 120 119 116 116 109 99 88 84 80 79 77 76 72 67 61 65
48 54 56 59 60 63 65 69 72 71 72 74 75 78 82 87 89 93 98 106 108 113 122 125 127 126 123 123 122 120 118 110 99 87 78 74 71 73 69 72 69 65 61
47 54 58 61 65 66 69 73 76 75 74 75 77 81 85 90 94 97 102 108 113 121 126 128 134 130 129 128 127 122 115 106 92 80 74 70 67 64 64 65 63 63 59
48 52 57 62 67 71 74 76 80 78 79 78 81 85 89 94 96 101 107 111 118 126 130 135 137 137 138 132 126 119 112 104 89 78 72 67 63 59 60 58 57 57 55
50 55 59 64 69 73 74 76 76 80 79 82 84 89 93 98 102 106 115 118 122 129 135 137 139 140 139 129 129 119 113 100 86 76 69 66 60 59 55 56 57 56 57
55 55 60 66 70 72 74 78 79 81 82 85 88 94 100 106 110 114 120 123 129 131 137 140 145 143 145 135 129 118 111 92 79 73 67 65 63 58 56 55 55 52 53
57 58 61 64 73 78 78 82 85 87 88 89 93 101 105 111 116 120 125 126 130 134 138 145 149 145 148 135 125 114 103 86 76 71 66 64 61 57 55 52 55 51 49
60 62 64 71 76 80 83 87 88 90 94 96 100 104 107 112 119 123 127 130 134 137 142 149 150 150 143 132 119 110 96 84 75 69 68 64 58 53 51 47 50 50 46
67 68 72 78 81 85 88 90 92 94 97 99 104 109 113 118 123 128 129 132 135 141 146 149 150 149 140 130 115 104 90 83 74 68 65 61 56 51 47 44 44 47 45
73 76 80 83 89 92 93 95 96 99 102 104 108 112 118 122 125 129 132 136 139 143 147 148 148 148 136 127 115 99 89 80 72 67 60 55 50 46 43 41 41 43 43
78 81 87 91 94 96 97 98 101 102 107 109 112 117 122 124 129 133 138 142 142 145 148 149 153 145 131 117 106 96 89 80 73 67 59 53 46 42 39 38 39 40 41
85 89 94 97 98 99 101 102 104 106 110 114 117 120 124 127 131 134 142 145 147 149 149 154 149 135 123 110 101 93 86 78 71 63 59 53 45 40 36 35 37 38 39
93 97 99 101 103 104 105 109 110 113 114 117 121 125 130 133 135 141 146 152 152 151 150 151 149 132 122 106 94 89 81 73 67 61 58 53 46 40 36 33 35 36 38
100 102 105 106 106 108 113 114 116 117 119 122 127 132 135 139 142 145 150 150 150 152 153 145 134 124 111 103 90 85 78 70 63 59 55 49 45 43 39 34 33 35 37
105 107 109 111 113 116 116 119 120 124 125 126 132 133 138 144 144 149 152 150 152 155 152 146 132 121 108 97 87 82 76 67 61 58 54 48 44 42 42 39 34 34 36
109 112 116 117 119 120 124 124 126 126 129 134 136 138 143 145 149 155 156 154 152 148 147 141 129 113 100 93 84 79 73 65 60 56 52 47 42 44 42 40 37 35 35
116 119 119 120 121 122 126 128 130 131 134 136 139 142 150 150 153 156 159 157 153 154 145 134 123 109 95 88 82 77 70 64 59 55 52 47 43 42 41 37 36 35 34
121 122 122 122 125 128 132 134 137 140 142 144 148 150 149 155 154 158 158 156 152 150 139 124 113 101 91 85 78 73 65 61 57 51 48 47 41 38 39 36 33 34 35
125 126 129 130 133 135 134 138 143 143 147 149 153 154 154 154 156 158 156 155 152 141 128 121 106 96 88 82 74 70 63 59 54 49 46 45 39 34 35 34 32 34 35
129 132 134 137 139 140 141 143 144 148 152 155 156 155 153 154 158 156 155 148 142 131 121 111 99 91 83 76 70 64 59 56 51 47 45 43 39 33 32 32 30 33 36
135 140 142 142 144 145 146 149 152 154 156 158 153 154 157 156 156 155 152 147 135 122 114 100 92 85 77 72 66 57 54 52 48 44 44 41 39 35 33 32 30 31 36
143 142 144 144 149 151 154 155 157 159 158 153 154 157 158 159 156 155 146 132 120 115 104 92 85 81 74 68 60 52 51 48 45 43 42 40 36 35 34 33 32 31 34
151 153 152 151 152 156 158 159 159 154 156 156 159 163 161 158 154 146 137 121 113 106 98 86 83 78 69 62 54 47 47 45 43 41 40 38 35 34 34 33 32 32 33
155 156 160 159 157 159 158 157 158 158 158 162 162 161 153 152 146 138 122 112 106 101 89 84 79 71 61 56 50 43 44 43 40 39 39 36 35 33 34 33 32 31 32
Wind_Direction
339 341 345 345 341 341 340 345 345 344 342 344 345 346 347 346 345 343 342 342 343 343 343 342 341 342 343 344 344 342 341 338 331 321 318 310 304 296 289 276 263 262 267
328 329 336 336 335 336 337 342 345 342 342 343 343 345 345 344 343 342 342 344 343 343 342 341 341 340 340 342 342 340 339 336 330 322 315 307 301 296 290 285 272 260 256
322 324 327 327 329 333 338 339 341 340 340 340 342 342 342 342 341 341 342 342 343 342 343 342 341 340 338 340 340 339 336 334 328 319 312 304 297 292 287 283 278 266 254
317 317 320 321 326 333 339 340 341 338 338 339 339 339 340 340 338 339 341 342 341 339 341 341 341 339 338 338 338 337 335 331 326 318 310 303 297 290 287 282 279 272 261
313 312 315 318 323 328 334 337 335 335 334 334 336 337 337 335 336 338 339 340 341 340 340 341 341 338 338 337 337 335 332 328 322 316 309 304 298 292 287 283 279 273 267
310 310 313 314 319 323 328 330 331 330 331 332 335 336 333 334 335 338 338 337 337 338 340 340 341 339 337 336 335 332 331 326 320 317 312 306 298 294 288 285 276 271 265
308 307 310 312 316 321 326 328 326 326 327 330 333 333 331 333 334 335 337 337 336 339 340 339 338 338 337 337 334 331 329 323 320 317 311 306 302 296 291 284 277 274 265
309 311 310 314 314 318 324 325 324 324 325 328 330 331 332 333 334 334 335 336 336 336 337 339 337 337 336 335 333 330 328 323 320 316 311 306 302 297 292 285 278 272 264
309 309 310 310 313 320 320 321 321 322 324 326 328 331 333 333 333 333 334 335 334 335 336 336 336 335 335 335 332 329 327 322 320 317 312 306 301 298 292 285 278 272 263
305 307 307 307 314 318 317 318 321 323 324 327 328 329 331 331 331 331 333 333 333 333 334 334 334 334 334 334 331 328 325 322 321 317 313 308 303 296 289 282 276 273 266
305 307 306 307 314 314 315 318 321 322 325 326 328 329 329 329 330 331 332 332 332 333 332 333 333 333 335 332 329 328 325 322 320 318 313 309 304 297 289 283 272 269 263
305 306 305 308 312 314 316 317 319 320 323 325 326 327 327 327 328 330 331 330 331 331 331 332 332 333 332 332 328 328 325 322 321 318 314 310 306 300 291 282 275 267 261
304 302 307 309 311 313 314 316 317 319 322 323 325 326 325 326 327 329 330 330 329 329 331 330 331 332 331 331 327 327 324 323 323 319 315 313 309 304 293 282 275 268 262
300 304 307 309 310 311 313 314 317 318 320 321 323 324 325 325 325 327 327 328 328 327 328 329 331 330 330 328 327 325 323 323 321 316 315 313 312 307 299 284 273 267 260
301 304 307 308 308 310 311 312 314 316 319 321 321 322 323 323 324 325 326 327 327 326 327 328 330 330 331 327 326 324 322 321 317 314 314 313 312 309 305 293 277 267 260
302 303 306 306 307 308 310 311 313 316 318 320 319 321 322 322 322 324 325 325 325 325 326 329 331 329 329 327 326 323 321 319 314 313 312 310 308 305 304 299 282 269 263
301 303 304 304 304 306 309 309 314 316 316 318 320 321 321 321 323 324 323 323 323 325 327 327 329 329 328 328 325 322 320 317 314 313 310 307 303 300 298 296 289 273 263
299 301 301 302 305 306 309 312 314 314 315 317 319 320 321 321 322 322 322 322 323 323 325 326 329 327 326 326 324 321 319 315 314 311 307 305 301 299 296 291 285 278 265
297 298 300 301 304 308 309 310 311 313 315 316 317 318 318 319 321 319 319 321 322 323 325 325 327 325 324 324 322 320 318 314 313 310 308 305 303 298 294 289 280 276 266
296 297 299 302 304 307 308 309 312 314 314 316 317 317 316 317 318 318 320 320 321 323 325 325 324 324 324 323 320 318 315 313 311 309 306 304 305 300 293 288 278 269 265
294 297 300 303 305 305 306 310 311 312 313 313 314 315 314 314 317 318 319 320 321 321 322 323 323 322 322 321 319 317 314 313 311 309 307 306 306 301 291 287 276 266 262
297 297 298 302 304 305 306 307 309 309 310 312 311 312 313 314 316 316 318 319 320 322 322 321 321 321 320 319 318 316 313 313 310 310 308 308 307 303 291 283 274 263 257
295 297 300 303 303 304 306 306 307 308 309 308 309 311 312 314 314 317 317 318 318 320 321 319 320 320 320 317 317 314 312 311 310 309 308 308 305 304 295 283 274 261 255
295 296 298 300 301 302 303 304 304 306 306 308 308 310 313 313 314 314 318 319 319 320 318 320 319 319 318 316 315 312 312 310 309 308 308 306 304 301 295 284 272 262 253
294 296 298 299 297 298 301 301 302 304 304 306 308 309 311 312 312 314 315 318 320 318 316 318 318 317 317 314 312 312 311 308 307 307 307 304 302 299 292 282 271 261 250
294 295 295 296 297 297 300 301 301 302 305 306 308 309 310 311 313 314 315 316 317 315 316 317 317 316 314 312 311 312 308 307 307 307 305 303 300 297 288 276 267 258 249
Height
10882 10878 10874 10868 10862 10856 10850 10844 10837 10829 10821 10811 10801 10792 10782 10773 10763 10753 10741 10729 10715 10700 10686 10671 10657 10644 10628 10616 10603 10584 10572 10561 10552 10541 10527 10515 10506 10498 10496 10500 10499 10497 10491
10875 10870 10866 10860 10855 10848 10842 10835 10828 10820 10811 10801 10791 10781 10771 10762 10752 10742 10729 10715 10701 10687 10671 10656 10640 10626 10610 10598 10584 10567 10555 10541 10531 10523 10509 10493 10483 10473 10466 10469 10469 10470 10470
10866 10860 10856 10850 10845 10839 10833 10826 10818 10809 10800 10790 10780 10770 10760 10750 10741 10728 10716 10702 10686 10669 10655 10640 10624 10608 10592 10576 10563 10549 10534 10517 10504 10494 10483 10470 10458 10448 10440 10438 10438 10440 10440
10857 10850 10845 10839 10835 10829 10822 10814 10807 10798 10789 10779 10770 10760 10749 10738 10727 10715 10701 10686 10671 10654 10636 10620 10603 10587 10572 10557 10543 10526 10508 10491 10477 10463 10454 10443 10431 10418 10417 10408 10409 10409 10414
10849 10842 10835 10828 10822 10816 10810 10803 10795 10787 10777 10768 10758 10747 10735 10724 10711 10698 10685 10670 10653 10637 10619 10604 10585 10565 10549 10533 10518 10502 10485 10468 10453 10440 10428 10417 10405 10396 10390 10386 10384 10384 10388
10839 10832 10827 10818 10811 10805 10798 10789 10782 10773 10763 10753 10743 10731 10719 10707 10695 10681 10668 10652 10635 10619 10601 10582 10567 10546 10527 10509 10496 10478 10458 10442 10429 10414 10401 10389 10379 10375 10367 10362 10360 10359 10365
10828 10821 10816 10808 10801 10793 10786 10779 10770 10760 10750 10739 10728 10717 10703 10690 10677 10663 10650 10635 10616 10596 10582 10564 10547 10527 10508 10491 10474 10451 10432 10413 10397 10387 10375 10362 10358 10350 10348 10341 10339 10339 10340
10815 10810 10803 10796 10788 10781 10774 10766 10757 10747 10736 10724 10711 10700 10687 10670 10658 10644 10630 10613 10597 10581 10563 10543 10528 10509 10490 10469 10448 10425 10406 10389 10375 10364 10353 10341 10333 10329 10324 10319 10318 10319 10319
10802 10796 10790 10783 10775 10768 10760 10751 10741 10730 10720 10708 10695 10682 10670 10653 10639 10626 10613 10598 10579 10562 10544 10525 10509 10488 10468 10450 10429 10402 10384 10369 10354 10342 10332 10323 10317 10308 10302 10299 10296 10300 10301
10788 10782 10776 10769 10763 10754 10746 10735 10726 10715 10702 10691 10677 10665 10653 10640 10624 10609 10596 10578 10563 10546 10526 10507 10486 10467 10448 10427 10405 10382 10365 10349 10335 10323 10312 10303 10297 10290 10284 10283 10278 10279 10283
10772 10768 10761 10753 10747 10739 10729 10721 10711 10699 10687 10675 10664 10649 10635 10622 10607 10592 10578 10560 10543 10525 10506 10490 10467 10446 10425 10404 10383 10362 10346 10331 10317 10306 10294 10285 10278 10271 10267 10265 10263 10261 10266
10757 10751 10743 10737 10730 10722 10713 10702 10693 10682 10670 10657 10645 10631 10616 10603 10588 10572 10557 10540 10523 10506 10487 10467 10445 10428 10406 10385 10363 10344 10328 10315 10302 10291 10279 10270 10262 10255 10250 10248 10247 10246 10249
10740 10733 10727 10718 10711 10704 10694 10684 10674 10664 10652 10639 10626 10614 10599 10583 10567 10551 10537 10519 10501 10485 10468 10448 10427 10407 10387 10364 10345 10327 10309 10296 10283 10272 10262 10255 10248 10240 10236 10233 10232 10231 10233
10720 10714 10708 10699 10691 10682 10675 10667 10657 10646 10633 10620 10607 10595 10580 10565 10548 10532 10517 10499 10481 10461 10443 10428 10409 10386 10367 10346 10326 10308 10293 10279 10268 10258 10248 10241 10235 10228 10223 10220 10218 10218 10219
10702 10695 10688 10680 10671 10662 10653 10644 10636 10625 10614 10600 10587 10575 10560 10543 10528 10512 10494 10475 10457 10439 10423 10402 10386 10364 10345 10327 10309 10293 10279 10267 10256 10244 10234 10227 10221 10216 10212 10209 10207 10206 10206
10682 10674 10667 10659 10650 10643 10633 10621 10612 10602 10591 10579 10566 10552 10538 10521 10505 10488 10472 10457 10438 10419 10401 10383 10361 10341 10323 10306 10290 10276 10263 10252 10243 10232 10222 10215 10208 10204 10201 10198 10196 10194 10193
10659 10653 10646 10638 10629 10620 10612 10602 10590 10577 10568 10557 10543 10528 10513 10498 10484 10467 10450 10432 10415 10398 10378 10359 10341 10324 10305 10288 10272 10258 10247 10236 10226 10217 10208 10202 10196 10192 10188 10186 10185 10183 10182
10640 10633 10625 10615 10607 10597 10588 10577 10567 10556 10542 10529 10517 10503 10489 10475 10459 10445 10427 10411 10395 10376 10359 10339 10321 10304 10288 10272 10256 10242 10231 10221 10210 10202 10194 10189 10184 10178 10174 10172 10172 10171 10171
10618 10610 10602 10592 10583 10573 10563 10552 10541 10531 10519 10505 10493 10480 10464 10453 10437 10420 10404 10388 10371 10352 10336 10319 10302 10286 10270 10255 10241 10227 10216 10206 10195 10186 10178 10174 10170 10164 10159 10158 10158 10159 10159
10592 10583 10575 10567 10558 10548 10537 10527 10515 10503 10491 10481 10467 10454 10441 10428 10414 10398 10381 10364 10346 10331 10314 10295 10280 10266 10251 10238 10225 10213 10202 10192 10182 10173 10166 10160 10156 10150 10145 10145 10145 10146 10147
10564 10556 10549 10540 10531 10520 10511 10500 10488 10476 10466 10456 10444 10432 10417 10402 10387 10370 10354 10338 10323 10307 10292 10275 10260 10246 10233 10220 10209 10197 10186 10177 10168 10159 10152 10147 10142 10138 10134 10133 10133 10134 10136
10537 10529 10521 10513 10503 10493 10483 10476 10463 10452 10441 10430 10417 10405 10389 10375 10360 10345 10332 10316 10300 10285 10269 10255 10240 10227 10215 10202 10192 10181 10171 10163 10154 10146 10140 10133 10129 10126 10123 10121 10122 10122 10124
10509 10501 10494 10486 10477 10469 10456 10446 10437 10426 10416 10403 10391 10379 10364 10351 10334 10320 10304 10288 10275 10262 10248 10234 10220 10208 10197 10185 10176 10167 10158 10149 10141 10134 10128 10122 10117 10114 10112 10110 10111 10112 10113
10480 10475 10469 10461 10451 10439 10430 10419 10408 10399 10387 10376 10363 10351 10338 10322 10308 10293 10280 10265 10252 10241 10227 10214 10202 10191 10179 10168 10159 10152 10144 10137 10128 10123 10116 10110 10106 10103 10100 10099 10099 10101 10103
10452 10446 10440 10433 10422 10413 10405 10391 10380 10370 10357 10348 10334 10323 10309 10296 10280 10265 10254 10245 10232 10219 10206 10195 10184 10173 10162 10152 10145 10139 10131 10124 10117 10111 10105 10099 10095 10092 10089 10088 10088 10090 10092
10426 10418 10408 10399 10391 10381 10372 10362 10350 10336 10331 10316 10305 10293 10278 10266 10252 10240 10229 10220 10210 10199 10186 10176 10166 10156 10146 10137 10130 10125 10119 10113 10106 10101 10093 10088 10084 10081 10079 10078 10078 10079 10081